Date,TemperatureHighF,TemperatureAvgF,TemperatureLowF,DewpointHighF,DewpointAvgF,DewpointLowF,HumidityHigh,HumidityAvg,HumidityLow,PressureMaxIn,PressureMinIn,WindSpeedMaxMPH,WindSpeedAvgMPH,GustSpeedMaxMPH,PrecipitationSumIn
2013-1-1,32.9,29.4,22.8,32.4,28.9,22.3,98,98,98,29.90,29.78,17,6,0,0.00
2013-1-2,26.1,19.6,13.1,22.3,17.8,12.6,98,93,76,30.08,29.90,11,3,0,0.00
2013-1-3,33.4,20.5,5.4,28.3,18.7,5.0,98,93,77,30.09,29.95,14,4,0,0.00
2013-1-4,31.5,27.6,25.3,31.0,27.1,24.8,98,98,98,30.07,29.97,24,9,0,0.00
2013-1-5,35.6,28.0,24.4,34.9,27.5,23.9,98,98,91,30.25,30.02,14,3,0,0.00
2013-1-6,41.0,34.8,28.6,40.5,34.3,28.1,98,98,98,30.03,29.86,13,2,0,0.00
2013-1-7,35.1,29.0,15.8,34.6,28.5,15.3,98,98,98,30.31,30.04,9,2,0,0.00
2013-1-8,45.7,24.8,9.5,38.7,22.6,9.1,98,93,62,30.27,30.17,6,0,0,0.00
2013-1-9,44.1,31.5,15.6,43.6,31.0,15.1,98,98,98,30.31,30.07,14,2,0,0.03
2013-1-10,43.5,35.9,26.4,40.5,35.0,25.9,98,97,77,30.48,30.29,17,1,0,0.00
2013-1-11,43.0,38.3,35.1,42.5,37.6,34.6,98,97,86,30.29,29.94,10,1,0,0.42
2013-1-12,57.9,41.8,34.0,57.3,41.3,33.5,98,98,98,30.02,29.93,0,0,0,0.00
2013-1-13,66.6,50.1,35.6,66.0,49.5,35.1,98,98,98,29.94,29.79,8,0,0,0.06
2013-1-14,56.7,40.8,32.2,56.1,39.9,31.7,98,97,79,30.23,29.81,16,3,0,0.12
2013-1-15,37.6,31.5,25.2,34.0,30.0,24.7,98,95,70,30.23,29.97,3,0,0,0.00
2013-1-16,36.3,33.1,30.2,35.8,32.6,29.7,98,98,98,29.96,29.74,14,2,0,0.37
2013-1-17,34.5,31.9,30.4,34.0,31.4,29.9,98,98,93,30.03,29.85,14,3,0,0.00
2013-1-18,30.7,22.6,16.3,30.2,19.2,10.9,98,88,62,30.33,29.96,12,6,0,0.00
2013-1-19,51.8,37.8,21.6,31.1,22.7,15.5,98,59,30,30.15,29.73,10,2,0,0.15
2013-1-20,46.2,36.7,20.7,36.7,27.5,16.4,84,70,47,29.97,29.65,16,6,0,0.00
2013-1-21,21.7,17.8,10.6,20.5,16.0,4.3,98,93,75,29.96,29.80,17,3,0,0.00
2013-1-22,10.2,7.0,4.6,8.7,3.9,-0.3,98,87,71,30.08,29.83,14,8,0,0.00
2013-1-23,13.5,8.5,3.2,8.2,4.6,0.3,98,84,62,30.11,29.91,14,4,0,0.00
2013-1-24,20.5,12.0,3.7,13.3,5.9,-1.9,98,78,44,30.38,29.89,14,3,0,0.00
2013-1-25,18.0,11.0,3.7,17.5,10.3,3.3,98,97,77,30.35,29.85,8,1,0,0.00
2013-1-26,27.9,21.2,17.6,26.8,20.4,17.1,98,97,86,30.28,29.90,11,5,0,0.00
2013-1-27,33.4,24.5,17.8,28.1,21.9,17.3,98,91,66,30.41,30.26,5,0,0,0.00
2013-1-28,50.0,30.8,27.0,49.5,30.3,26.5,98,98,98,30.25,29.91,8,1,0,0.03
2013-1-29,60.8,49.6,39.9,60.2,49.0,39.4,98,98,98,29.96,29.77,11,2,0,0.07
2013-1-30,66.0,49.1,36.0,65.4,48.5,35.5,98,98,98,29.76,29.12,11,2,0,1.01
2013-1-31,50.0,30.8,21.0,49.5,29.4,19.8,98,95,80,29.67,29.09,25,11,0,0.36
2013-2-1,21.2,13.9,9.7,20.7,11.0,5.5,98,88,77,30.16,29.65,20,8,0,0.01
2013-2-2,22.3,12.8,6.3,21.8,11.9,5.9,98,96,85,30.16,29.86,8,2,0,0.00
2013-2-3,27.7,20.3,16.5,27.2,19.8,16.0,98,98,98,29.81,29.67,16,5,0,0.00
2013-2-4,27.5,21.0,15.3,26.8,19.0,14.8,98,92,84,29.91,29.77,12,5,0,0.00
2013-2-5,34.5,31.1,27.1,33.5,30.0,24.1,98,96,80,29.79,29.68,14,3,0,0.00
2013-2-6,32.0,25.4,12.0,31.5,24.6,11.5,98,97,83,30.21,29.78,15,5,0,0.00
2013-2-7,36.9,23.3,9.3,34.6,22.5,8.9,98,97,89,30.25,29.97,10,2,0,0.08
2013-2-8,39.7,32.6,26.1,39.2,31.4,19.9,98,96,75,29.97,29.66,17,3,0,0.19
2013-2-10,43.3,32.4,3.2,30.1,23.1,2.8,98,70,47,30.27,29.94,6,1,0,0.00
2013-2-11,61.3,44.5,33.4,58.0,35.8,23.6,98,74,39,29.93,29.53,16,4,0,0.15
2013-2-12,40.6,33.8,24.4,36.5,32.1,23.9,98,94,80,29.89,29.77,17,6,0,0.00
2013-2-13,43.2,29.5,18.5,39.1,18.7,-20.6,98,66,13,29.81,29.56,4,0,0,0.00
2013-2-14,43.0,34.6,26.1,40.9,31.6,13.4,98,90,50,29.85,29.68,7,2,0,0.20
2013-2-15,43.3,36.7,28.9,39.1,34.5,23.8,98,92,71,29.90,29.78,12,5,0,0.00
2013-2-16,29.8,25.3,16.3,29.3,24.4,15.8,98,97,83,29.89,29.74,7,2,0,0.01
2013-2-17,23.7,17.2,13.6,21.8,10.8,-56.3,98,80,2,30.07,29.73,14,5,0,0.00
2013-2-18,41.9,23.4,4.6,41.4,22.5,4.2,98,96,59,30.18,29.87,8,2,0,0.03
2013-2-19,43.3,31.2,22.1,42.8,29.7,8.2,98,95,52,29.87,29.50,21,5,0,0.34
2013-2-20,23.7,18.5,15.4,23.2,16.8,11.5,98,94,73,30.02,29.73,21,10,0,0.04
2013-2-21,26.1,19.2,13.3,22.6,16.7,7.5,98,90,74,30.22,29.98,14,5,0,0.01
2013-2-22,27.5,23.5,13.1,27.0,19.5,7.3,98,85,76,30.19,30.00,11,2,0,0.00
2013-2-23,45.7,38.6,29.3,45.2,36.6,24.8,98,92,81,29.89,29.71,4,0,0,0.01
2013-2-24,34.2,30.0,26.2,32.6,27.3,21.2,98,90,75,29.98,29.71,13,5,0,0.01
2013-2-25,43.7,32.8,23.4,33.3,25.0,16.1,98,74,55,30.07,29.98,6,1,0,0.00
2013-2-26,36.5,33.6,26.8,33.5,28.2,18.3,98,81,64,30.02,29.52,14,4,0,0.20
2013-2-27,42.3,36.4,32.5,41.8,34.2,27.1,98,92,75,29.55,29.46,8,2,0,0.37
2013-2-28,35.2,32.5,30.9,34.2,24.9,-57.9,98,81,1,29.62,29.49,8,4,0,0.12
2013-3-1,33.4,29.9,25.3,32.6,24.6,17.8,98,81,68,29.79,29.61,10,5,0,0.00
2013-3-2,28.4,24.4,22.3,26.6,15.0,-1.4,98,69,32,29.78,29.72,10,5,0,0.00
2013-3-3,30.2,23.9,20.1,27.6,13.0,-0.2,98,64,37,29.81,29.72,12,6,0,0.00
2013-3-4,33.3,24.6,18.5,29.0,17.9,-2.1,98,76,39,29.93,29.81,14,6,0,0.00
2013-3-5,46.6,31.1,9.3,34.2,18.5,-2.0,98,65,14,29.97,29.61,11,2,0,0.05
2013-3-6,41.4,35.8,30.6,38.4,33.9,29.1,98,93,81,29.95,29.59,10,2,0,0.27
2013-3-7,38.8,34.7,26.5,38.3,33.6,2.0,98,96,34,30.10,29.95,10,3,0,0.12
2013-3-8,43.2,34.6,26.2,37.9,32.1,20.9,98,91,68,30.25,30.10,14,6,0,0.00
2013-3-9,57.7,35.5,18.5,39.0,26.2,11.9,98,72,39,30.29,30.13,5,0,0,0.00
2013-3-10,62.4,44.3,27.1,43.7,33.3,23.5,98,70,39,30.15,29.98,11,2,0,0.00
2013-3-11,55.9,48.5,40.3,51.7,42.2,36.0,98,81,51,29.99,29.67,12,3,0,0.02
2013-3-12,51.8,40.3,34.9,51.3,39.8,34.4,98,98,98,29.85,29.65,15,4,0,0.47
2013-3-13,38.7,31.2,24.1,34.2,30.3,23.6,98,97,71,29.92,29.77,13,5,0,0.09
2013-3-14,35.8,27.7,23.2,26.8,23.9,21.5,98,86,59,30.01,29.92,18,9,0,0.00
2013-3-15,45.7,36.6,21.2,43.9,33.6,20.7,98,89,69,29.97,29.68,13,5,0,0.00
2013-3-16,37.4,35.0,32.9,36.9,34.3,31.1,98,97,89,29.80,29.53,7,1,0,0.15
2013-3-17,36.7,31.3,26.8,32.6,29.3,26.3,98,92,76,30.08,29.80,11,1,0,0.00
2013-3-18,31.5,29.3,25.9,29.9,25.4,18.0,98,86,61,30.09,29.67,11,2,0,0.00
2013-3-19,46.0,35.7,28.2,37.6,28.6,21.9,98,77,47,29.81,29.60,17,2,0,0.42
2013-3-20,38.1,31.0,25.7,31.5,24.9,21.1,98,79,55,29.83,29.67,8,0,0,0.00
2013-3-21,26.2,22.7,16.5,23.8,18.8,12.7,98,85,59,29.73,29.67,11,0,0,0.00
2013-3-22,30.9,26.7,22.5,30.4,24.8,15.2,98,93,71,29.87,29.70,2,0,0,0.00
2013-3-23,44.6,32.7,25.2,32.0,28.4,24.7,98,86,58,29.89,29.84,3,0,0,0.00
2013-3-24,40.6,30.7,20.5,34.2,26.8,17.2,98,86,69,29.88,29.45,1,0,0,0.01
2013-3-25,41.2,33.3,29.5,40.7,30.7,21.3,98,90,71,29.58,29.35,0,0,0,0.24
2013-3-26,43.3,34.4,28.4,42.8,33.2,27.9,98,95,86,29.90,29.59,12,1,0,0.29
2013-3-27,40.6,34.3,31.3,37.1,31.5,26.1,98,89,74,30.00,29.90,10,1,0,0.15
2013-3-28,38.5,34.8,32.4,38.0,33.8,30.1,98,96,88,30.12,29.97,12,1,0,0.09
2013-3-29,50.2,39.9,31.5,44.9,35.6,31.0,98,86,56,30.14,30.03,7,0,0,0.00
2013-3-30,53.8,38.3,23.0,36.4,28.4,6.7,98,73,33,30.13,29.97,4,0,0,0.00
2013-3-31,46.4,37.4,29.3,45.9,36.9,28.8,98,98,98,29.97,29.60,5,0,0,0.31
2013-4-1,46.6,39.9,29.5,46.1,34.5,18.8,98,83,46,29.86,29.58,10,0,0,0.12
2013-4-2,39.2,30.7,25.0,26.3,21.1,16.7,98,70,48,30.04,29.85,66,2,0,0.16
2013-4-3,38.5,28.8,21.9,34.3,21.0,13.4,98,76,41,30.26,30.03,0,0,0,0.00
2013-4-4,48.7,33.1,14.5,34.4,18.3,6.0,98,64,21,30.28,29.87,8,0,0,0.00
2013-4-5,55.9,41.5,24.4,43.5,30.7,23.9,98,69,35,30.01,29.80,11,1,0,0.00
2013-4-6,56.1,40.5,22.5,55.5,39.9,22.0,98,98,73,30.18,30.02,1,0,0,0.00
2013-4-7,70.3,53.1,40.3,69.7,52.5,39.8,98,98,98,30.01,29.79,9,1,0,0.00
2013-4-8,73.2,56.9,42.3,72.6,56.4,41.8,98,98,98,29.98,29.82,9,1,0,0.00
2013-4-9,79.7,68.5,58.3,79.1,67.9,57.7,98,98,98,30.01,29.82,7,2,0,0.00
2013-4-10,80.2,67.3,57.0,74.8,33.3,-41.9,98,64,1,29.89,29.71,14,2,0,0.58
2013-4-11,77.5,60.4,51.4,76.9,25.6,-46.0,98,64,1,29.80,29.61,9,0,0,0.00
2013-4-12,68.0,56.0,44.8,67.4,55.3,44.3,98,98,74,29.73,29.46,12,1,0,0.68
2013-4-13,56.1,46.6,39.6,55.5,46.0,39.1,98,98,98,29.85,29.72,11,2,0,0.00
2013-4-14,62.6,48.7,34.2,62.0,48.2,33.7,98,98,98,30.04,29.86,6,0,0,0.00
2013-4-15,62.8,57.4,50.5,62.2,56.8,50.0,98,98,98,30.09,29.96,17,0,0,0.00
2013-4-16,79.9,63.0,55.8,76.8,60.9,55.2,98,94,67,30.11,29.95,11,1,0,0.38
2013-4-17,68.4,60.1,53.4,67.8,59.4,52.8,98,98,86,30.17,30.04,0,0,0,0.01
2013-4-18,75.0,65.0,59.4,74.4,64.4,58.8,98,98,98,30.10,29.77,12,1,0,0.00
2013-4-19,73.0,60.2,43.5,72.4,59.6,43.0,98,98,98,29.77,29.42,13,1,0,0.25
2013-4-20,49.1,40.8,33.6,48.6,40.3,33.1,98,98,98,30.28,29.72,9,1,0,0.02
2013-4-21,54.7,39.7,26.4,54.1,39.2,25.9,98,98,98,30.47,30.28,6,0,0,0.00
2013-4-22,58.3,46.7,36.1,57.7,46.1,35.6,98,98,98,30.42,30.24,10,0,0,0.00
2013-4-23,69.1,48.7,30.4,68.5,48.2,29.9,98,98,98,30.24,29.95,2,0,0,0.00
2013-4-24,75.4,52.3,38.5,74.8,51.7,38.0,98,98,98,30.02,29.61,11,1,0,0.32
2013-4-25,59.7,46.8,36.0,46.3,37.6,29.9,98,75,34,30.24,30.02,0,0,0,0.00
2013-4-26,62.2,48.7,32.4,49.9,37.6,31.1,98,72,31,30.36,30.24,0,0,0,0.00
2013-4-27,70.9,52.9,30.7,62.6,41.7,30.2,98,72,36,30.33,30.13,8,0,0,0.00
2013-4-28,58.3,49.4,40.6,57.7,39.4,-51.6,98,83,1,30.14,29.97,10,0,0,0.15
2013-4-29,58.5,53.4,49.1,57.9,40.1,-47.1,98,76,1,30.00,29.93,1,0,0,0.04
2013-4-30,63.5,59.1,55.4,62.9,56.4,5.6,98,94,13,30.19,30.10,2,0,0,0.00
2013-5-1,72.5,60.2,43.3,58.2,45.3,-7.6,98,64,7,30.30,30.19,7,0,0,0.00
2013-5-2,74.8,58.9,40.1,54.9,40.2,-52.9,98,61,1,30.34,30.19,10,1,0,0.00
2013-5-3,68.9,57.1,40.5,56.6,32.5,-52.8,98,60,1,30.27,30.16,9,1,0,0.00
2013-5-4,69.8,57.1,42.4,58.5,50.8,41.9,98,82,54,30.20,30.05,7,0,0,0.00
2013-5-5,71.2,56.2,37.8,55.9,39.5,-53.0,98,63,1,30.11,29.97,11,0,0,0.00
2013-5-6,65.7,55.6,41.7,65.1,46.8,-49.8,98,89,1,30.06,29.98,4,0,0,0.02
2013-5-7,67.3,59.3,54.9,66.7,4.1,-44.0,98,42,1,29.98,29.89,3,0,0,0.12
2013-5-8,69.1,57.8,52.3,65.1,13.5,-45.5,98,53,1,29.92,29.82,9,1,0,0.66
2013-5-9,71.8,60.3,52.2,71.2,59.7,51.7,98,98,98,29.93,29.82,0,0,0,0.12
2013-5-10,77.2,59.1,47.1,76.6,58.5,46.6,98,98,85,29.95,29.75,7,0,0,0.47
2013-5-11,61.0,57.0,52.5,60.4,56.2,38.4,98,97,47,29.75,29.67,4,0,0,0.48
2013-5-12,53.4,47.4,39.4,52.8,46.6,36.8,98,97,62,29.90,29.70,11,1,0,0.02
2013-5-13,50.2,42.2,31.8,49.7,41.7,31.3,98,98,98,30.08,29.89,1,0,0,0.00
2013-5-14,59.2,45.1,26.8,58.6,44.6,26.3,98,98,98,30.12,29.89,0,0,0,0.00
2013-5-15,85.3,63.9,43.5,84.7,63.3,43.0,98,98,98,29.90,29.60,17,1,0,0.01
2013-5-16,79.2,69.1,58.1,72.6,59.9,35.0,98,77,37,29.88,29.67,11,1,0,0.15
2013-5-17,82.8,66.6,51.8,76.6,50.1,-45.8,98,73,1,30.05,29.88,4,0,0,0.00
2013-5-18,76.1,62.6,48.4,75.5,57.6,-47.8,98,94,1,30.12,30.02,8,0,0,0.00
2013-5-19,66.7,62.6,57.4,66.1,62.0,56.8,98,98,98,30.09,29.98,5,0,0,0.00
2013-5-20,85.5,72.2,58.8,84.9,58.7,-41.6,98,85,1,29.99,29.84,3,0,0,0.00
2013-5-21,90.5,74.7,58.6,87.6,61.2,-39.7,98,83,1,29.92,29.73,8,0,0,0.00
2013-5-22,89.2,72.1,62.2,82.0,69.6,61.6,98,93,62,29.82,29.68,10,1,0,0.31
2013-5-23,79.9,65.9,59.0,77.5,51.7,-40.2,98,83,1,29.77,29.66,6,0,0,0.73
2013-5-24,58.8,45.6,40.6,58.2,38.9,-48.1,98,92,1,30.14,29.71,8,0,0,0.01
2013-5-25,61.2,48.5,37.9,50.0,41.5,37.4,98,80,47,30.18,30.08,12,1,0,0.00
2013-5-26,66.9,51.5,33.1,51.8,43.7,32.6,98,79,45,30.18,30.11,13,2,0,0.00
2013-5-27,67.1,52.4,33.8,61.5,47.4,-55.6,98,87,1,30.22,30.08,6,1,0,0.01
2013-5-28,76.6,60.3,51.1,76.0,47.3,-46.2,98,84,1,30.09,29.94,6,1,0,0.76
2013-5-29,87.1,70.4,53.2,84.0,67.2,52.6,98,91,58,30.03,29.96,11,2,0,0.00
2013-5-30,90.3,72.8,54.1,89.7,47.7,-44.4,98,73,1,30.13,30.01,8,2,0,0.00
2013-5-31,91.9,76.1,57.7,91.3,48.3,-42.3,98,70,1,30.08,29.88,7,2,0,0.00
2013-6-1,88.5,75.6,62.2,87.9,42.2,-39.5,98,67,1,29.95,29.75,11,2,0,0.00
2013-6-2,82.6,71.4,63.9,82.0,39.7,-38.5,98,68,1,29.77,29.71,11,2,0,0.03
2013-6-3,69.8,64.7,51.1,69.2,40.0,-40.1,98,75,1,29.95,29.76,6,2,0,0.00
2013-6-4,75.2,58.0,39.2,64.3,53.0,38.7,98,86,55,30.08,29.95,9,2,0,0.00
2013-6-5,73.9,51.9,44.4,66.4,50.5,43.9,98,95,71,30.10,30.04,5,1,0,0.00
2013-9-6,64.8,53.6,44.4,64.2,53.0,43.9,98,98,98,30.24,30.23,0,0,0,0.00
2013-9-10,71.2,70.8,70.3,70.6,70.2,69.7,98,98,98,30.07,30.07,3,1,0,0.00
2013-9-11,89.6,73.0,65.7,89.0,68.1,-35.9,98,94,1,30.10,29.94,9,1,0,0.05
2013-9-12,82.6,69.2,61.2,82.0,58.0,-38.4,98,88,1,29.94,29.68,7,2,0,0.57
2013-9-13,66.0,57.6,47.7,65.4,57.0,47.2,98,98,98,29.91,29.70,9,3,0,0.04
2013-9-14,53.1,46.8,43.3,52.2,46.3,42.8,98,98,94,30.05,29.91,4,1,0,0.01
2013-9-15,72.9,63.9,47.3,68.1,53.0,41.4,98,74,33,30.14,29.99,6,1,0,0.01
2013-9-16,70.0,59.7,54.0,66.6,57.9,52.4,98,94,56,30.21,29.98,9,2,0,0.14
2013-9-17,66.7,52.9,41.4,54.4,19.4,-39.3,98,64,1,30.34,30.20,7,1,0,0.00
2013-9-18,73.4,52.1,35.6,61.6,29.4,-35.7,98,71,1,30.23,30.07,6,1,0,0.00
2013-9-19,73.2,58.3,46.2,72.6,57.7,45.7,98,98,98,30.10,29.98,4,0,0,0.00
2013-9-20,80.6,63.6,50.4,77.8,62.5,49.9,98,96,70,30.00,29.80,6,1,0,0.08
2013-9-21,69.4,61.4,56.7,68.8,60.8,56.1,98,98,98,29.80,29.58,14,1,0,0.92
2013-9-22,64.2,55.7,51.8,59.7,53.0,31.9,98,92,30,29.91,29.66,11,2,0,0.01
2013-9-23,60.6,51.1,40.8,52.4,40.9,12.7,98,77,15,30.05,29.90,10,2,0,0.00
2013-9-24,72.0,50.6,37.4,58.0,27.0,-37.0,98,72,1,30.05,29.88,4,1,0,0.00
2013-9-25,73.6,52.3,37.9,62.4,33.5,-35.5,98,75,1,29.93,29.82,5,1,0,0.00
2013-9-26,77.9,56.2,42.4,60.7,29.0,-35.9,98,69,1,30.01,29.87,7,1,0,0.00
2013-9-27,74.3,56.0,41.5,64.7,42.2,-32.8,98,76,4,30.14,30.01,6,1,0,0.00
2013-9-28,66.4,53.3,43.3,63.8,48.0,36.1,98,85,36,30.22,30.12,7,2,0,0.00
2013-9-29,72.3,53.1,38.3,61.9,42.2,22.1,98,77,15,30.12,29.95,6,1,0,0.00
2013-9-30,74.8,58.2,46.4,68.3,51.5,28.5,98,85,19,30.00,29.90,6,1,0,0.00
2013-10-1,76.8,61.2,51.8,72.6,56.0,44.1,98,87,33,30.00,29.90,10,1,0,0.00
2013-10-2,78.4,62.5,47.5,74.8,58.1,47.0,98,89,40,30.01,29.94,9,2,0,0.00
2013-10-3,79.7,65.3,54.0,78.0,63.6,53.4,98,95,55,30.05,29.94,5,1,0,0.00
2013-10-4,81.9,69.4,59.5,77.3,65.0,54.6,98,89,40,30.02,29.93,7,1,0,0.22
2013-10-5,83.5,69.9,60.6,78.6,67.2,58.6,98,93,43,30.01,29.89,10,1,0,0.17
2013-10-6,85.6,71.7,61.5,76.8,42.5,-29.3,98,63,1,29.91,29.71,12,2,0,0.00
2013-10-7,70.5,58.0,43.7,69.9,48.3,12.2,98,79,15,30.01,29.60,16,4,0,0.44
2013-10-8,67.3,51.6,38.5,57.3,21.7,-39.7,98,67,1,30.22,30.01,7,2,0,0.00
2013-10-9,65.7,49.9,35.2,48.4,9.9,-44.5,98,55,3,30.27,30.17,5,1,0,0.00
2013-10-10,63.9,50.8,40.8,54.8,35.5,-39.8,98,79,6,30.16,30.01,4,0,0,0.03
2013-10-11,60.3,54.1,50.4,59.7,53.6,49.9,98,98,98,30.00,29.96,4,1,0,1.29
2013-10-12,74.5,62.9,54.3,69.3,58.2,43.3,98,87,50,30.11,29.96,5,1,0,0.00
2013-10-13,62.2,58.5,55.6,61.6,57.9,55.0,98,98,98,30.21,30.09,5,1,0,0.05
2013-10-14,66.6,59.4,55.4,66.0,58.8,54.8,98,98,98,30.22,30.13,5,1,0,0.00
2013-10-15,69.4,59.5,50.5,65.0,53.8,46.4,98,85,45,30.15,29.94,7,1,0,0.00
2013-10-16,68.0,57.5,49.5,64.0,56.4,49.0,98,96,56,29.94,29.78,6,0,0,0.05
2013-10-17,64.2,57.5,49.1,63.6,56.8,48.6,98,98,85,29.81,29.53,11,2,0,0.33
2013-10-18,59.9,50.3,39.6,50.6,26.7,-43.2,98,69,3,29.91,29.75,12,4,0,0.00
2013-10-19,55.4,43.3,33.3,54.8,42.8,32.8,98,98,97,29.90,29.66,14,2,0,0.04
2013-10-20,57.6,44.2,35.6,44.8,22.2,-45.8,98,71,1,29.97,29.82,15,3,0,0.00
2013-10-21,67.3,46.6,30.7,50.0,11.6,-42.9,98,62,1,30.02,29.78,10,1,0,0.00
2013-10-22,52.0,44.8,35.8,47.2,19.6,-49.5,98,69,1,29.83,29.72,16,3,0,0.06
2013-10-23,42.6,38.2,35.2,42.1,37.7,34.7,98,98,98,29.78,29.60,7,2,0,0.09
2013-10-24,43.7,37.7,34.9,37.3,22.9,-52.4,98,69,1,29.99,29.77,12,4,0,0.01
2013-10-25,45.7,36.7,29.7,39.2,27.8,-18.0,98,81,6,30.19,29.99,10,3,0,0.00
2013-10-26,54.1,40.4,25.5,31.3,-20.7,-50.6,98,35,1,30.12,29.79,13,3,0,0.00
2013-10-27,49.1,42.1,30.2,41.5,-2.0,-50.3,98,43,1,30.02,29.83,16,4,0,0.00
2013-10-28,59.9,40.1,23.9,42.7,6.2,-47.9,98,62,1,30.20,30.02,6,1,0,0.00
2013-10-29,61.5,44.1,29.7,45.9,11.4,-45.8,98,62,9,30.29,30.18,6,1,0,0.00
2013-10-30,67.6,49.3,34.7,54.4,32.3,-23.7,98,71,2,30.19,30.02,6,1,0,0.00
2013-10-31,66.9,57.2,49.3,66.3,56.6,48.8,98,98,98,30.03,29.50,11,1,0,0.29
2013-11-1,65.5,58.0,43.0,64.9,30.3,-41.3,98,67,2,29.60,29.29,15,5,0,0.15
2013-11-2,54.3,44.7,37.6,50.8,38.4,19.7,98,84,28,29.78,29.56,10,3,0,0.09
2013-11-3,48.0,39.7,27.7,43.2,13.8,-52.6,98,68,1,30.35,29.78,9,3,0,0.01
2013-11-4,43.2,32.9,21.2,29.3,-17.5,-56.5,98,41,1,30.48,30.35,8,2,0,0.00
2013-11-5,51.3,40.4,30.2,35.3,-13.6,-52.7,98,33,1,30.46,30.30,8,2,0,0.00
2013-11-6,71.2,50.2,28.8,46.8,13.9,-38.5,98,50,5,30.30,29.83,8,2,0,0.00
2013-11-7,61.9,46.4,36.5,58.8,29.6,-54.5,98,70,2,29.98,29.76,12,5,0,0.25
2013-11-8,42.8,36.7,28.4,31.6,-19.2,-55.0,98,28,1,30.17,29.93,15,4,0,0.00
2013-11-9,55.6,40.3,23.7,35.3,-12.0,-50.0,98,44,33,30.19,29.85,13,2,0,0.00
2013-11-10,52.2,44.6,38.3,5.8,-35.0,-53.0,19,4,1,30.12,29.83,16,7,0,0.00
2013-11-11,52.7,41.7,30.0,41.8,-4.3,-49.5,98,43,1,30.16,29.89,14,4,0,0.06
2013-11-12,39.4,29.9,24.1,38.9,10.5,-58.5,98,65,1,30.29,29.91,14,4,0,0.09
2013-11-13,35.8,28.9,23.7,25.7,-10.8,-59.5,98,46,1,30.36,30.22,12,5,0,0.01
2013-11-14,50.2,35.8,25.9,26.8,-39.6,-60.3,98,13,1,30.23,30.08,16,3,0,0.00
2013-11-15,54.5,39.4,23.5,43.6,-12.6,-52.2,98,43,1,30.13,30.04,9,2,0,0.00
2013-11-16,60.8,47.9,34.2,51.7,35.0,-6.8,98,75,6,30.17,30.02,9,1,0,0.01
2013-11-17,58.8,54.0,48.9,58.2,53.4,48.4,98,98,98,30.03,29.47,11,2,0,0.46
2013-11-18,56.5,48.9,37.8,54.3,-21.1,-54.5,98,14,1,29.88,29.54,19,9,0,0.04
2013-11-19,37.6,33.1,23.9,26.5,-10.6,-56.1,98,27,2,30.28,29.89,17,4,0,0.00
2013-11-20,45.7,31.4,18.7,26.6,-24.2,-60.4,98,38,1,30.39,30.27,10,2,0,0.00
2013-11-21,48.4,36.7,25.2,41.4,20.8,-59.1,98,68,1,30.39,30.18,7,1,0,0.00
2013-11-22,54.3,46.9,37.0,53.7,46.4,36.5,98,98,98,30.17,29.93,11,4,0,0.12
2013-11-23,37.6,29.8,18.1,36.0,1.5,-66.8,98,58,1,30.11,29.95,15,7,0,0.02
2013-11-24,22.6,17.8,14.9,18.7,-29.6,-68.0,98,21,1,30.35,30.11,14,6,0,0.01
2013-11-25,37.0,24.0,9.9,14.6,-34.3,-65.3,98,28,1,30.36,30.08,7,2,0,0.00
2013-11-26,36.7,33.0,30.4,36.2,31.4,-56.4,98,97,1,30.12,29.53,10,1,0,2.29
2013-11-27,34.2,28.7,21.2,33.7,27.7,15.3,98,96,74,29.90,29.49,18,7,0,0.13
2013-11-28,28.8,23.7,17.8,25.7,-4.1,-61.8,98,55,1,30.29,29.92,17,4,0,0.00
2013-11-29,33.8,26.4,17.1,26.8,8.2,-57.6,98,64,1,30.55,30.28,5,1,0,0.00
2013-11-30,32.5,22.7,12.4,26.5,14.4,-1.9,98,77,24,30.55,30.16,11,2,0,0.00
2013-12-1,49.5,31.8,15.4,37.3,14.2,-50.3,98,75,1,30.15,29.86,4,0,0,0.05
2013-12-2,50.9,39.8,30.0,42.7,30.4,1.7,98,80,13,29.85,29.70,5,0,0,0.00
2013-12-3,53.4,39.6,33.3,49.9,35.2,22.9,98,88,32,29.84,29.72,4,1,0,0.00
2013-12-4,59.0,40.8,29.8,47.3,36.3,29.3,98,88,33,29.93,29.82,6,0,0,0.00
2013-12-5,64.2,50.7,40.3,63.6,50.1,39.8,98,98,98,29.89,29.77,6,1,0,0.45
2013-12-6,45.7,35.2,30.0,45.2,34.7,29.5,98,98,98,30.10,29.86,7,2,0,0.39
2013-12-7,29.8,25.6,19.2,29.3,24.8,18.7,98,97,74,30.42,30.09,8,3,0,0.00
2013-12-8,26.1,20.4,13.6,25.6,19.9,13.1,98,98,87,30.43,30.05,8,2,0,0.00
2013-12-9,38.8,33.3,26.4,38.3,32.8,25.9,98,98,98,30.05,29.87,13,3,0,0.42
2013-12-10,30.4,25.9,21.9,29.9,0.9,-63.4,98,62,1,30.07,29.86,20,6,0,0.05
2013-12-11,28.9,23.1,18.9,22.9,-24.0,-63.5,98,28,1,30.20,30.07,18,6,0,0.05
2013-12-12,21.4,18.0,13.3,19.8,-33.7,-67.9,98,33,1,30.28,30.05,16,6,0,0.00
2013-12-13,32.7,24.2,18.7,22.1,-44.1,-66.4,98,21,1,30.14,30.05,16,6,0,0.00
2013-12-14,33.3,28.9,22.1,32.8,28.4,21.6,98,98,98,30.15,29.55,10,2,0,0.00
2013-12-15,36.7,29.0,21.6,36.2,25.2,-20.1,98,89,14,29.81,29.46,19,9,0,0.42
2013-12-16,23.9,19.2,15.4,22.5,6.5,-65.5,98,73,1,30.00,29.81,25,4,0,0.00
2013-12-17,36.3,28.9,22.5,35.8,28.4,22.0,98,98,98,29.91,29.78,10,2,0,0.04
2013-12-18,30.2,26.1,23.0,27.4,23.6,15.6,98,91,57,30.04,29.85,12,5,0,0.00
2013-12-19,50.5,35.9,14.5,23.8,-31.8,-58.5,98,27,1,29.97,29.91,23,5,0,0.31
2013-12-20,54.1,41.3,30.2,53.5,-37.3,-59.2,98,14,1,29.94,29.80,6,1,0,0.04
2013-12-21,58.8,50.0,42.6,43.6,-39.4,-51.5,95,6,1,29.81,29.66,5,1,0,0.74
2013-12-22,65.1,59.1,50.2,61.8,-30.2,-46.8,98,9,1,29.85,29.56,10,3,0,0.17
2013-12-23,55.8,40.6,29.3,47.5,-44.3,-59.8,98,8,1,30.13,29.83,20,6,0,0.03
2013-12-24,29.1,26.5,16.5,28.4,-22.4,-67.6,98,40,1,30.29,30.08,13,5,0,0.00
2013-12-25,25.0,18.6,11.3,22.9,-54.4,-71.1,98,11,1,30.38,30.11,4,1,0,0.00
2013-12-26,34.7,27.9,22.5,33.3,-43.6,-64.0,98,18,1,30.20,30.02,16,4,0,0.00
2013-12-27,38.8,25.3,14.2,33.0,-53.9,-69.3,98,8,1,30.22,30.14,14,2,0,0.00
2013-12-28,53.1,36.6,19.8,37.7,-42.1,-65.5,98,12,1,30.15,29.96,14,3,0,0.00
2013-12-29,42.3,37.6,31.6,40.0,-28.8,-58.3,98,25,1,29.96,29.48,16,2,0,0.89
2013-12-30,39.4,27.2,20.7,38.7,-53.0,-65.2,98,9,1,30.04,29.67,17,4,0,0.02
2013-12-31,24.8,22.2,19.9,23.6,-55.6,-65.7,98,9,1,30.15,29.92,14,5,0,0.01
2014-1-1,41.7,30.6,23.2,34.4,-50.0,-63.6,98,10,1,30.17,29.94,9,2,0,0.00
2014-1-2,30.2,24.3,12.9,27.2,-54.8,-70.1,98,8,1,29.94,29.53,7,1,0,0.00